User: anonymous   Login
Location: S�tio Afonso Gruber
(26.1760°S, 49.5250°W)
Time: 22:32:29
(UTC+00:00)
Language:

XW-2C - Orbit

View from above orbital plane
View from above orbital plane
View from above satellite
View from above satellite

Ground track
Ground track

The orbit data is extracted from the following two-line orbital elements,

1 40906U 15049H   23342.56349380  .00012382  00000-0  39908-3 0  9998
2 40906  97.4909 350.9298 0008042 267.1991  92.8330 15.32293818455049
Epoch (UTC): 08 December 2023 13:31:25
Eccentricity: 0.0008042
inclination: 97.4909°
perigee height: 463 km
apogee height: 474 km
right ascension of ascending node: 350.9298°
argument of perigee: 267.1991°
revolutions per day: 15.32293818
mean anomaly at epoch: 92.8330°
orbit number at epoch: 45504

The dashed part of the orbit path shows where the satellite is in the earth's shadow,  

DLR